Location: Les Martinières
(47.2667°N, 1.4410°E)
Time: 23:21:06
(UTC+00:00)

Cosmos 2219 Rocket - Pass Details

Date: 15 May 2026
Orbit: 826 x 846 km, 71.0° (Epoch: 6 June)

Event Time Altitude Azimuth Distance (km) Brightness Sun altitude
Rises 21:57:46 0° 332° (NNW) 3,405 7.0 -19.0°
Reaches altitude 10° 22:00:12 10° 331° (NNW) 2,469 5.9 -19.2°
Maximum altitude 22:05:53 82° 245° (WSW) 858 2.2 -19.6°
Enters shadow 22:08:12 38° 162° (SSE) 1,277 2.6 -19.8°
